Location: Borgo
(42.3939°N, 9.2791°E)
Time: 17:27:03
(UTC+00:00)

Cosmos 2221 Rocket - Pass Details

Date: 27 February 2020
Orbit: 619 x 649 km, 82.5° (Epoch: 31 March)

Event Time Altitude Azimuth Distance (km) Brightness Sun altitude
Rises 18:20:31 0° 1° (N) 2,953 7.1 -13.9°
Reaches altitude 10° 18:23:00 10° 12° (NNE) 2,034 6.1 -14.3°
Maximum altitude 18:27:01 31° 75° (ENE) 1,114 4.3 -15.1°
Enters shadow 18:28:34 25° 111° (ESE) 1,288 4.6 -15.4°
